Weather History for Du Bois, PA

Change the Weather History Date:

Wednesday, September 28, 2011

  Actual Average Record
Temperature  
Mean Temperature 60 °F 55 °F  
Max Temperature 69 °F 65 °F 77 °F (1971)
Min Temperature 53 °F 45 °F 31 °F (1965)
Degree Days  
Heating Degree Days 4 10  
Month to date heating degree days 161  
Since 1 July heating degree days 223  
Cooling Degree Days 0 0  
Month to date cooling degree days 28  
Year to date cooling degree days 359  
Growing Degree Days 10 (Base 50)    
Moisture  
Dew Point 56 °F    
Average Humidity 88    
Maximum Humidity 100    
Minimum Humidity 65    
Precipitation  
Precipitation 0.06 in 0.11 in 3.16 in (1967)
Month to date precipitation 3.42  
Sea Level Pressure  
Sea Level Pressure 29.87 in    
Wind  
Wind Speed 3 mph (SSE)    
Max Wind Speed 10 mph    
Max Gust Speed -    
Visibility 8 miles    
Events Fog , Rain , Thunderstorm    
T = Trace of Precipitation, MM = Missing Value Source: NWS Daily Summary

Daily Weather History Graph

Daily Weather History Graph

Search for Another Location

Airport:

Trip Planner

Search our weather history database for the weather conditions in past years. The results will help you decide how hot, cold, wet, or windy it might be!

Date:

Astronomy

Sep. 28, 2011 Rise Set
Actual Time 7:08 AM EDT 7:03 PM EDT
Civil Twilight 6:41 AM EDT 7:30 PM EDT
Nautical Twilight 6:09 AM EDT 8:02 PM EDT
Astronomical Twilight 5:36 AM EDT 8:34 PM EDT
Moon 8:37 AM EDT (9/28) 7:29 PM EDT (9/28)
Length of Visible Light 12h 49m
Length of Day
11h 54m
New Moon, 2% of the Moon is Illuminated
Sep 28
New Moon
Oct 3
First Quarter
Oct 11
Full
Oct 19
Last Quarter
Oct 26
New

Hourly Weather History & Observations

Time (EDT) Temp. Dew Point Humidity Pressure Visibility Wind Dir Wind Speed Gust Speed Precip Events Conditions
12:17 AM 60.8 °F 57.2 °F 88% 29.89 in 10.0 mi WNW 5.8 mph - 0.00 in Thunderstorm Overcast
12:34 AM 60.8 °F 57.2 °F 88% 29.89 in 10.0 mi West 5.8 mph - 0.00 in   Overcast
12:56 AM 61.0 °F 57.0 °F 87% 29.87 in 10.0 mi West 5.8 mph - 0.00 in Thunderstorm Overcast
1:41 AM 59.0 °F 55.4 °F 88% 29.89 in 7.0 mi West 10.4 mph - 0.04 in Rain Light Rain
1:56 AM 57.9 °F 55.0 °F 90% 29.87 in 8.0 mi West 3.5 mph - 0.04 in Rain Light Rain
2:16 AM 57.2 °F 55.4 °F 94% 29.89 in 10.0 mi East 4.6 mph - 0.00 in   Overcast
2:56 AM 57.9 °F 55.9 °F 93% 29.87 in 8.0 mi Calm Calm - 0.00 in   Overcast
3:56 AM 57.0 °F 53.1 °F 87% 29.87 in 10.0 mi Calm Calm - N/A   Overcast
4:56 AM 57.0 °F 55.0 °F 93% 29.87 in 7.0 mi Calm Calm - N/A   Mostly Cloudy
5:56 AM 55.4 °F 53.6 °F 94% 29.90 in 3.0 mi Calm Calm - N/A   Scattered Clouds
6:39 AM 55.4 °F 53.6 °F 94% 29.90 in 1.2 mi East 4.6 mph - N/A   Scattered Clouds
6:44 AM 53.6 °F 53.6 °F 100% 29.90 in 0.2 mi East 3.5 mph - N/A Fog Fog
6:54 AM 55.4 °F 53.6 °F 94% 29.91 in 0.2 mi Calm Calm - N/A Fog Fog
6:56 AM 55.4 °F 53.6 °F 94% 29.91 in 0.2 mi Calm Calm - N/A Fog Fog
7:07 AM 55.4 °F 53.6 °F 94% 29.91 in 0.2 mi Calm Calm - N/A Fog Fog
7:28 AM 53.6 °F 53.6 °F 100% 29.91 in 0.2 mi Calm Calm - N/A Fog Fog
8:17 AM 57.2 °F 55.4 °F 94% 29.92 in 5.0 mi ESE 3.5 mph - N/A   Overcast
8:56 AM 57.0 °F 55.0 °F 93% 29.91 in 6.0 mi Calm Calm - N/A   Overcast
9:56 AM 59.0 °F 55.9 °F 90% 29.90 in 10.0 mi Calm Calm - N/A   Overcast
10:56 AM 60.1 °F 57.0 °F 90% 29.89 in 5.0 mi Calm Calm - 0.01 in Rain Light Rain
11:56 AM 61.0 °F 59.0 °F 93% 29.88 in 6.0 mi Calm Calm - 0.00 in   Overcast
12:49 PM 60.8 °F 55.4 °F 82% 29.88 in 10.0 mi East 6.9 mph - 0.01 in   Overcast
12:56 PM 61.0 °F 57.0 °F 87% 29.87 in 10.0 mi East 5.8 mph - 0.01 in   Overcast
1:04 PM 60.8 °F 57.2 °F 88% 29.88 in 10.0 mi East 6.9 mph - N/A   Overcast
1:15 PM 62.6 °F 57.2 °F 82% 29.87 in 10.0 mi East 6.9 mph - N/A   Overcast
1:56 PM 61.0 °F 57.9 °F 90% 29.85 in 9.0 mi East 3.5 mph - N/A   Overcast
2:04 PM 62.6 °F 59.0 °F 88% 29.86 in 9.0 mi SE 3.5 mph - N/A   Overcast
2:18 PM 64.4 °F 59.0 °F 83% 29.86 in 10.0 mi Calm Calm - N/A   Mostly Cloudy
2:39 PM 64.4 °F 60.8 °F 88% 29.84 in 10.0 mi SSW 4.6 mph - N/A   Scattered Clouds
2:56 PM 66.9 °F 60.1 °F 79% 29.82 in 10.0 mi Calm Calm - N/A   Partly Cloudy
3:56 PM 68.0 °F 55.9 °F 65% 29.81 in 10.0 mi SSW 3.5 mph - N/A   Partly Cloudy
4:56 PM 68.0 °F 57.0 °F 68% 29.80 in 10.0 mi WNW 5.8 mph - N/A   Mostly Cloudy
5:56 PM 66.0 °F 57.0 °F 73% 29.82 in 10.0 mi West 4.6 mph - N/A   Overcast
6:56 PM 64.0 °F 57.0 °F 78% 29.82 in 10.0 mi West 4.6 mph - N/A   Mostly Cloudy
7:56 PM 60.1 °F 57.0 °F 90% 29.84 in 10.0 mi Calm Calm - N/A   Scattered Clouds
8:56 PM 60.1 °F 55.9 °F 86% 29.84 in 10.0 mi Calm Calm - N/A   Mostly Cloudy
9:56 PM 57.0 °F 54.0 °F 89% 29.84 in 10.0 mi Calm Calm - N/A   Partly Cloudy
10:56 PM 57.9 °F 55.0 °F 90% 29.83 in 7.0 mi Calm Calm - N/A   Overcast
11:56 PM 57.9 °F 55.0 °F 90% 29.82 in 10.0 mi Calm Calm - N/A   Overcast